(151579) = 2002 TQ255

Discovered at Socorro on 2002-10-09 by LINEAR.

Orbit

Orbit type: Main Belt

Note: WebGL enabled browser required.

epoch2024-03-31.0
epoch JD2460400.5
perihelion date2022-09-07.07170
perihelion JD2459829.57170
argument of perihelion (°)10.62462
ascending node (°)19.84902
inclination (°)2.59904
eccentricity0.1697467
perihelion distance (AU)1.8474567
Tisserand w.r.t. Jupiter3.6
ΔV w.r.t. Earth (km/sec)8.4
semimajor axis (AU)2.2251725
mean anomaly (°)169.52739
mean daily motion (°/day)0.29693290
aphelion distance (AU)2.603
period (years)3.32
P-vector [x]0.86192694
P-vector [y]0.46180430
P-vector [z]0.20932927
Q-vector [x]-0.50679867
Q-vector [y]0.77214247
Q-vector [z]0.38334203
absolute magnitude17.44
phase slope0.15
uncertainty0
referenceMPEC 2024-E109
observations used553
oppositions14
arc length (days)11435
first opposition used1992
last opposition used2024
residual rms (arc-secs)0.73
perturbers coarse indicatorM-v
perturbers precise indicator003Ek
first observation date used1992-10-25.0
last observation date used2024-02-15.0
computer nameMPCLINUX
JD of orbit computation2456789.372914
perihelion JD uncertainty (days)4.9650E-05
argument of perihelion uncertainty (°)9.0861E-05
ascending node uncertainty (°)8.8518E-05
inclination uncertainty (°)5.7479E-06
eccentricity uncertainty 7.3313E-08
perihelion distance uncertainty (AU)1.6158E-07
Minimum Orbit Intersection Distances (in AU)
for orbit epoch: 2460400.5, reference: E2024-G51
Mercury1.51517
Venus1.1247
Earth0.85297
Mars0.38819
Jupiter2.82935
Saturn6.90171
Uranus15.926
Neptune27.9762

Observations

574 total observations over interval: 1992 10 25.21656 – 2024 02 15.649052
These data are available for download (format description).

Date (UT) J2000 RA J2000 Dec Magn Location Ref
1992 10 25.21656 01 52 06.60 +12 41 49.7 18.4 V 691 – Steward Observatory, Kitt Peak-Spacewatch MPS 175704
1992 10 25.24797 01 52 04.62 +12 41 44.6   691 – Steward Observatory, Kitt Peak-Spacewatch MPS 175704
1992 10 25.27022 01 52 03.21 +12 41 40.8   691 – Steward Observatory, Kitt Peak-Spacewatch MPS 175704
2002 10 02.39604 03 00 40.87 +17 48 53.8 19.2   704 – Lincoln Laboratory ETS, New Mexico MPS 83038
2002 10 02.41165 03 00 40.58 +17 48 56.5 19.8   704 – Lincoln Laboratory ETS, New Mexico MPS 83038
2002 10 02.42728 03 00 40.36 +17 48 57.5 19.6   704 – Lincoln Laboratory ETS, New Mexico MPS 83038
2002 10 02.44293 03 00 40.09 +17 48 58.6 19.5   704 – Lincoln Laboratory ETS, New Mexico MPS 83038
2002 10 02.45849 03 00 39.85 +17 49 00.2 20.0   704 – Lincoln Laboratory ETS, New Mexico MPS 83038
2002 10 09.31980 02 58 15.65 +17 57 01.4 19.4   704 – Lincoln Laboratory ETS, New Mexico MPS 64221
2002 10 09.33492 02 58 15.24 +17 57 03.2 19.3   704 – Lincoln Laboratory ETS, New Mexico MPS 64221
2002 10 09.34977 02 58 14.72 +17 57 02.3 19.4   704 – Lincoln Laboratory ETS, New Mexico MPS 64221
2002 10 09.36454 02 58 14.29 +17 57 03.6 19.5   704 – Lincoln Laboratory ETS, New Mexico MPS 64221
2002 10 09.37921 02 58 13.67 +17 57 03.8 19.5   704 – Lincoln Laboratory ETS, New Mexico MPS 64221
2002 10 11.33968 02 57 12.32 +17 58 02.7 19.8   704 – Lincoln Laboratory ETS, New Mexico MPS 64221
2002 10 11.35557 02 57 11.68 +17 58 03.6 20.1   704 – Lincoln Laboratory ETS, New Mexico MPS 64221
2002 10 11.37149 02 57 11.10 +17 58 04.0 20.1   704 – Lincoln Laboratory ETS, New Mexico MPS 64221
2002 10 11.38724 02 57 10.55 +17 58 04.9 19.9   704 – Lincoln Laboratory ETS, New Mexico MPS 64221
2002 10 16.31430 02 53 59.89 +17 58 00.7 18.7 R 699 – Lowell Observatory-LONEOS MPS 68101
2002 10 16.33537 02 53 58.89 +17 58 01.5   699 – Lowell Observatory-LONEOS MPS 68101
2002 10 16.35641 02 53 57.86 +17 57 59.2   699 – Lowell Observatory-LONEOS MPS 68101
2002 10 16.37741 02 53 56.98 +17 58 00.5   699 – Lowell Observatory-LONEOS MPS 68101
2002 10 31.34913 02 40 21.58 +17 37 55.1 18.7   644 – Palomar Mountain/NEAT MPS 66205
2002 10 31.37003 02 40 20.23 +17 37 52.1 18.4   644 – Palomar Mountain/NEAT MPS 66205
2002 10 31.39113 02 40 18.85 +17 37 49.3 18.5   644 – Palomar Mountain/NEAT MPS 66205
2002 11 01.61073 02 39 03.14 +17 35 06.2 20.4   608 – Haleakala-AMOS MPS 66205
2002 11 01.62192 02 39 02.48 +17 35 05.4 19.8   608 – Haleakala-AMOS MPS 66205
2002 11 01.63294 02 39 01.74 +17 35 03.3 19.7   608 – Haleakala-AMOS MPS 66205
2002 11 06.24020 02 34 16.74 +17 23 51.0 18.4   704 – Lincoln Laboratory ETS, New Mexico MPS 66205
2002 11 06.25685 02 34 15.68 +17 23 48.8 18.5   704 – Lincoln Laboratory ETS, New Mexico MPS 66205
2002 11 06.27351 02 34 14.57 +17 23 47.0 18.6   704 – Lincoln Laboratory ETS, New Mexico MPS 66205
2002 11 06.29019 02 34 13.49 +17 23 44.1 18.8   704 – Lincoln Laboratory ETS, New Mexico MPS 66205
2002 11 06.30689 02 34 12.44 +17 23 41.6 18.7   704 – Lincoln Laboratory ETS, New Mexico MPS 66205
2002 11 06.50751 02 33 59.79 +17 23 11.6 20.0   608 – Haleakala-AMOS MPS 66205
2002 11 06.51818 02 33 59.10 +17 23 09.2 20.0   608 – Haleakala-AMOS MPS 66205
2002 11 06.52876 02 33 58.41 +17 23 07.7 19.5   608 – Haleakala-AMOS MPS 66205
2002 11 08.24486 02 32 14.13 +17 18 40.1 18.8   704 – Lincoln Laboratory ETS, New Mexico MPS 66205
2002 11 08.26240 02 32 13.00 +17 18 36.9 19.1   704 – Lincoln Laboratory ETS, New Mexico MPS 66205
2002 11 08.27977 02 32 11.84 +17 18 34.3 18.7   704 – Lincoln Laboratory ETS, New Mexico MPS 66205
2002 11 08.29713 02 32 10.75 +17 18 31.5 19.0   704 – Lincoln Laboratory ETS, New Mexico MPS 66205
2002 11 12.24269 02 28 17.96 +17 08 09.9 19.6   704 – Lincoln Laboratory ETS, New Mexico MPS 66205
2002 11 12.25993 02 28 16.82 +17 08 07.2 19.8   704 – Lincoln Laboratory ETS, New Mexico MPS 66205
2002 11 12.27715 02 28 15.80 +17 08 04.9 19.6   704 – Lincoln Laboratory ETS, New Mexico MPS 66205
2002 11 12.29408 02 28 14.85 +17 08 00.9 19.5   644 – Palomar Mountain/NEAT MPS 66205
2002 11 12.31186 02 28 13.70 +17 08 00.0 19.7   704 – Lincoln Laboratory ETS, New Mexico MPS 66205
2002 11 12.31505 02 28 13.56 +17 07 57.5 19.7   644 – Palomar Mountain/NEAT MPS 66205
2002 11 12.33613 02 28 12.28 +17 07 53.9 19.6   644 – Palomar Mountain/NEAT MPS 66205
2002 11 14.24911 02 26 25.24 +17 02 56.2 18.9   704 – Lincoln Laboratory ETS, New Mexico MPS 66205
2002 11 14.26735 02 26 24.20 +17 02 52.1 19.1   704 – Lincoln Laboratory ETS, New Mexico MPS 66205
2002 11 14.28519 02 26 23.12 +17 02 49.5 19.5   704 – Lincoln Laboratory ETS, New Mexico MPS 66205
2002 11 14.32099 02 26 21.07 +17 02 44.7 19.8   704 – Lincoln Laboratory ETS, New Mexico MPS 66205
2002 11 23.12586 02 19 18.51 +16 42 05.0 19.1   644 – Palomar Mountain/NEAT MPS 68101
2002 11 23.14712 02 19 17.59 +16 42 02.1 20.1   644 – Palomar Mountain/NEAT MPS 68101
2002 11 23.16853 02 19 16.69 +16 42 00.1 19.6   644 – Palomar Mountain/NEAT MPS 68101
2002 12 05.09440 02 13 47.59 +16 26 11.4 18.7 R 695 – Kitt Peak MPS 69980
2002 12 05.20580 02 13 45.69 +16 26 08.5   695 – Kitt Peak MPS 69980
2005 07 27.33397 22 03 44.51 -16 36 54.6 19.9   644 – Palomar Mountain/NEAT MPS 138871
2005 07 27.36194 22 03 43.30 -16 37 01.8 20.1   644 – Palomar Mountain/NEAT MPS 138871
2005 07 27.38264 22 03 42.43 -16 37 06.9 20.0   644 – Palomar Mountain/NEAT MPS 138871
2005 08 01.58510 21 59 53.37 -16 58 53.6 19.5 V E12 – Siding Spring Survey MPS 138871
2005 08 01.59264 21 59 52.94 -16 58 56.0 19.6 V E12 – Siding Spring Survey MPS 138871
2005 08 01.60031 21 59 52.62 -16 58 57.5 19.6 V E12 – Siding Spring Survey MPS 138871
2005 08 01.60821 21 59 52.22 -16 59 00.0 19.0 V E12 – Siding Spring Survey MPS 138871
2005 08 22.25978 21 39 49.21 -18 28 39.7 19.5   644 – Palomar Mountain/NEAT MPS 139634
2005 08 22.28050 21 39 47.87 -18 28 44.5 19.0   644 – Palomar Mountain/NEAT MPS 139634
2005 08 22.30181 21 39 46.48 -18 28 49.2 19.4   644 – Palomar Mountain/NEAT MPS 139634
2005 11 03.08074 21 39 37.44 -15 39 52.2 20.8 V G96 – Mt. Lemmon Survey MPS 147428
2005 11 03.08620 21 39 37.80 -15 39 49.6 20.6 V G96 – Mt. Lemmon Survey MPS 147428
2005 11 03.09168 21 39 38.16 -15 39 47.1 21.1 V G96 – Mt. Lemmon Survey MPS 147428
2005 11 03.09718 21 39 38.52 -15 39 45.0 21.1 V G96 – Mt. Lemmon Survey MPS 147428
2007 01 27.41447 11 32 59.85 +05 57 30.6 22.5 V G96 – Mt. Lemmon Survey MPS 198067
2007 01 27.42177 11 32 59.71 +05 57 31.9 21.6 V G96 – Mt. Lemmon Survey MPS 198067
2007 01 27.42910 11 32 59.49 +05 57 33.3 21.2 V G96 – Mt. Lemmon Survey MPS 198067
2007 01 27.43641 11 32 59.31 +05 57 34.6 21.5 V G96 – Mt. Lemmon Survey MPS 198067
2007 02 17.28720 11 19 19.88 +07 23 05.8   691 – Steward Observatory, Kitt Peak-Spacewatch MPS 200325
2007 02 17.30535 11 19 18.85 +07 23 11.7   691 – Steward Observatory, Kitt Peak-Spacewatch MPS 200325
2007 02 17.32375 11 19 17.82 +07 23 17.5   691 – Steward Observatory, Kitt Peak-Spacewatch MPS 200325
2007 02 21.30372 11 15 32.29 +07 45 03.9 20.9 V 691 – Steward Observatory, Kitt Peak-Spacewatch MPS 200325
2007 02 21.32204 11 15 31.14 +07 45 10.0 20.5 V 691 – Steward Observatory, Kitt Peak-Spacewatch MPS 200325
2007 02 21.34389 11 15 29.85 +07 45 17.0 20.8 V 691 – Steward Observatory, Kitt Peak-Spacewatch MPS 200325
2007 03 12.36244 10 55 49.65 +09 29 53.1 20.4 V G96 – Mt. Lemmon Survey MPS 204433
2007 03 12.36909 10 55 49.26 +09 29 55.2 20.5 V G96 – Mt. Lemmon Survey MPS 204433
2007 03 12.37582 10 55 48.79 +09 29 56.8 20.5 V G96 – Mt. Lemmon Survey MPS 204433
2007 03 12.38246 10 55 48.43 +09 29 59.1 20.8 V G96 – Mt. Lemmon Survey MPS 204433
2009 09 17.46459 07 08 00.51 +24 34 52.6 21.4 V 691 – Steward Observatory, Kitt Peak-Spacewatch MPS 295610
2009 09 17.47725 07 08 02.00 +24 34 51.0 21.4 V 691 – Steward Observatory, Kitt Peak-Spacewatch MPS 295610
2009 09 17.48991 07 08 03.57 +24 34 49.2 21.2 V 691 – Steward Observatory, Kitt Peak-Spacewatch MPS 295610
2009 09 21.48285 07 16 04.95 +24 25 56.0 21.2 V 691 – Steward Observatory, Kitt Peak-Spacewatch MPS 296700
2009 09 21.48533 07 16 05.26 +24 25 55.6 21.2 V 691 – Steward Observatory, Kitt Peak-Spacewatch MPS 296700
